SCP
0 0 0 0 0 0 0 0 0 0 0 0 0 0 0 0 0 0 0 0 0 0
0 0 0 0 0 0 0 0 0 0 0 0 0 0 0 0 0 0 0 0 0 0
0 0 0 0 0 0 0 0 0 0 0 0 0 0 0 0 0 0 0 0 0 0
0 0 0 0 0 0 0 0 0 0 0 0 0 0 0 0 0 0 0 0 0 0
0 0 0 0 0 0 0 0 0 0 0 0 0 0 0 0 0 0 0 0 0 0
0 0 0 0 0 0 0 0 0 0 0 0 0 0 0 0 0 0 0 0 0 0
0 0 0 0 0 0 0 0 0 0 0 0 0 0 0 0 0 0 -0 0 0 0
0 0 0 0 0 0 0 0 0 0 0 0 0 0 0 -0 -0 -0 0 0 0 0
0 0 0 0 0 0 0 0 0 0 0 0 0 -0 -0 -0 0 0 0 0 0 0
0 0 0 0 0 0 0 0 0 0 0 0 0 0 0 0 0 0 0 0 0 0
0 0 0 0 0 0 0 0 0 0 0 0 0 0 0 0 0 0 0 0 0 0
0 0 0 0 0 0 0 0 0 0 0 0 0 0 0 0 0 0 0 0 0 0
0 0 0 0 0 0 0 0 0 0 0 0 -0 -0 -0 0 0 0 0 0 0 0
0 0 0 0 0 0 0 0 0 0 0 0 -0 -0 -0 0 0 0 0 0 0 0
Wind_Speed_500mb
55 52 57 64 63 63 54 52 47 42 39 44 50 51 53 52 56 55 51 47 43 45
48 55 61 60 53 56 55 55 43 42 41 46 54 56 61 58 52 43 46 44 40 37
53 57 56 53 59 65 61 49 43 47 51 45 53 60 56 47 43 41 35 29 34 35
50 53 59 64 74 65 52 41 42 45 52 60 62 45 39 36 32 22 20 19 25 31
59 55 62 67 64 53 42 42 47 62 64 52 38 38 34 32 23 17 14 19 21 21
47 55 63 57 50 42 42 54 55 47 45 41 29 29 29 25 17 12 12 14 18 12
50 52 50 47 49 52 53 55 50 43 41 39 27 26 25 14 10 12 9 9 11 6
46 51 45 51 60 55 51 46 42 40 33 24 18 15 17 9 4 6 5 7 2 17
48 45 47 58 60 48 41 40 39 36 29 25 19 15 7 5 7 2 3 3 3 12
43 41 51 64 51 41 41 38 36 29 22 20 18 4 4 4 7 8 4 5 7 14
37 43 58 59 44 40 39 36 35 26 19 12 8 7 11 13 18 14 13 13 15 17
36 47 61 48 42 39 36 33 30 20 16 12 11 10 16 21 19 16 17 19 21 18
37 51 55 43 43 38 31 26 21 13 16 15 12 15 19 17 22 20 21 21 23 26
40 56 45 40 39 33 28 20 7 12 12 13 12 19 24 23 25 27 25 27 29 29
Wind_Direction_500mb
318 315 319 324 323 321 323 321 318 313 303 296 298 296 301 295 293 294 281 285 291 292
315 318 320 322 327 323 318 313 305 302 298 295 296 296 301 297 300 287 285 282 282 297
321 320 322 320 321 315 309 309 305 300 302 298 300 303 301 300 295 290 280 277 282 299
320 317 319 316 321 321 320 314 309 309 304 302 302 303 304 301 299 292 277 274 293 303
315 316 318 319 322 324 324 320 313 309 309 304 298 302 303 299 299 289 275 283 300 297
324 327 327 333 337 332 327 322 317 317 317 314 306 303 305 293 291 258 297 297 304 299
329 335 340 343 340 331 324 322 323 323 325 315 295 300 299 281 278 240 299 300 314 250
329 338 340 341 338 333 330 333 337 334 325 321 318 300 316 276 212 235 271 274 314 201
336 339 342 339 336 338 342 341 340 343 335 334 346 316 266 206 164 100 88 123 102 165
337 338 341 338 337 345 346 346 349 349 345 348 0 51 127 128 185 130 83 117 112 127
339 341 338 338 342 343 344 345 352 354 356 10 62 84 81 104 125 111 93 103 121 119
344 342 340 340 345 344 344 344 349 356 5 107 112 102 100 118 104 108 113 112 131 127
345 341 340 340 339 342 343 345 353 39 71 108 96 113 120 108 105 107 122 117 103 119
347 341 341 344 352 350 352 349 32 102 103 120 111 126 118 110 108 109 119 125 106 114
Wind_Speed_850mb
55 52 57 64 63 63 54 52 47 42 39 44 50 51 53 52 56 55 51 47 43 45
48 55 61 60 53 56 55 55 43 42 41 46 54 56 61 58 52 43 46 44 40 37
53 57 56 53 59 65 61 49 43 47 51 45 53 60 56 47 43 41 35 29 34 35
50 53 59 64 74 65 52 41 42 45 52 60 62 45 39 36 32 22 20 19 25 31
59 55 62 67 64 53 42 42 47 62 64 52 38 38 34 32 23 17 14 19 21 21
47 55 63 57 50 42 42 54 55 47 45 41 29 29 29 25 17 12 12 14 18 12
50 52 50 47 49 52 53 55 50 43 41 39 27 26 25 14 10 12 9 9 11 6
46 51 45 51 60 55 51 46 42 40 33 24 18 15 17 9 4 6 5 7 2 17
48 45 47 58 60 48 41 40 39 36 29 25 19 15 7 5 7 2 3 3 3 12
43 41 51 64 51 41 41 38 36 29 22 20 18 4 4 4 7 8 4 5 7 14
37 43 58 59 44 40 39 36 35 26 19 12 8 7 11 13 18 14 13 13 15 17
36 47 61 48 42 39 36 33 30 20 16 12 11 10 16 21 19 16 17 19 21 18
37 51 55 43 43 38 31 26 21 13 16 15 12 15 19 17 22 20 21 21 23 26
40 56 45 40 39 33 28 20 7 12 12 13 12 19 24 23 25 27 25 27 29 29
Wind_Direction_850mb
318 315 319 324 323 321 323 321 318 313 303 296 298 296 301 295 293 294 281 285 291 292
315 318 320 322 327 323 318 313 305 302 298 295 296 296 301 297 300 287 285 282 282 297
321 320 322 320 321 315 309 309 305 300 302 298 300 303 301 300 295 290 280 277 282 299
320 317 319 316 321 321 320 314 309 309 304 302 302 303 304 301 299 292 277 274 293 303
315 316 318 319 322 324 324 320 313 309 309 304 298 302 303 299 299 289 275 283 300 297
324 327 327 333 337 332 327 322 317 317 317 314 306 303 305 293 291 258 297 297 304 299
329 335 340 343 340 331 324 322 323 323 325 315 295 300 299 281 278 240 299 300 314 250
329 338 340 341 338 333 330 333 337 334 325 321 318 300 316 276 212 235 271 274 314 201
336 339 342 339 336 338 342 341 340 343 335 334 346 316 266 206 164 100 88 123 102 165
337 338 341 338 337 345 346 346 349 349 345 348 0 51 127 128 185 130 83 117 112 127
339 341 338 338 342 343 344 345 352 354 356 10 62 84 81 104 125 111 93 103 121 119
344 342 340 340 345 344 344 344 349 356 5 107 112 102 100 118 104 108 113 112 131 127
345 341 340 340 339 342 343 345 353 39 71 108 96 113 120 108 105 107 122 117 103 119
347 341 341 344 352 350 352 349 32 102 103 120 111 126 118 110 108 109 119 125 106 114